Home > Weather > Port Elizabeth > Past weeks

Flag for South Africa Past Weather in Port Elizabeth, South Africa — Yesterday and Last 2 Weeks

Now
61 °F

Sunny.


Feels Like: 61 °F
Forecast: 51 / 67 °F
Wind: 15 mph from East

Location: Port Elizabeth Airport

Current Time: Jul 31, 2016 at 9:31:17 AM

Latest Report: Jul 31, 2016 at 9:00 AM


Visibility: 10 mi

Pressure: 30.12 "Hg

Humidity: 83%

Dew Point: 55 °F

Location of Port ElizabethLocation

Past Weather in Port Elizabeth — Graph

°F

Port Elizabeth Temperature Yesterday

Maximum temperature yesterday: 61 °F (at 10:00 AM)
Minimum temperature yesterday: 55 °F (at 6:56 AM)
Average temperature yesterday: 59 °F

High & Low Weather Summary for the Past Weeks

 TemperatureHumidityPressure
High73 °F (Jul 18, 3:00 PM)94% (Jul 16, 7:00 PM)30.48 "Hg (Jul 16, 7:00 PM)
Low43 °F (Jul 24, 8:00 AM)26% (Jul 27, 2:00 PM)29.80 "Hg (Jul 28, 2:00 PM)
Average57 °F75%30.12 "Hg
* Reported Jul 16 8:00 AM — Jul 31 8:00 AM, Port Elizabeth, Weather by CustomWeather, © 2016

Note: Actual official high and low records may vary slightly from our data, if they occured in-between our weather recording intervals... More about our weather records

Advertising

Port Elizabeth Weather History for the Previous 24 Hours

Scroll right to see more
 ConditionsComfort  
Time TempWeatherWind HumidityBarometerVisibility
8:00 AM
Sun, Jul 31
59 °FSunny.9 mph88%30.12 "Hg10 mi
7:00 AM55 °FSunny.6 mph94%30.12 "Hg10 mi
6:00 AM55 °FClear.7 mph94%30.15 "Hg10 mi
5:00 AM55 °FClear.6 mph94%30.15 "Hg10 mi
4:00 AM57 °FClear.5 mph94%30.18 "Hg10 mi
3:00 AM57 °FPassing clouds.8 mph94%30.18 "HgN/A
2:00 AM57 °FPassing clouds.6 mph94%30.18 "HgN/A
1:00 AM59 °FPartly cloudy.8 mph94%30.21 "HgN/A
12:00 AM57 °FPassing clouds.8 mph94%30.21 "HgN/A
10:00 PM
Sat, Jul 30
59 °FOvercast.9 mph88%30.24 "HgN/A
9:00 PM59 °FPassing clouds.9 mph82%30.24 "HgN/A
8:00 PM59 °FPassing clouds.8 mph82%30.24 "HgN/A
7:00 PM59 °FPartly cloudy.13 mph82%30.24 "HgN/A
6:00 PM59 °FPassing clouds.10 mph82%30.21 "HgN/A
5:02 PM57 °FLight rain. Partly cloudy.6 mph94%30.24 "Hg4 mi
4:00 PM59 °FLight rain. Mostly cloudy.9 mph94%30.24 "Hg3 mi
3:58 PM57 °FLight rain. Mostly cloudy.9 mph94%30.24 "Hg3 mi
3:00 PM61 °FLight rain. Partly sunny.6 mph88%30.24 "Hg2 mi
2:59 PM59 °FLight rain. Mostly cloudy.7 mph94%30.24 "Hg2 mi
2:00 PM61 °FBroken clouds.6 mph88%30.24 "HgN/A
1:55 PM61 °FBroken clouds.7 mph94%30.24 "HgN/A
1:00 PM59 °FSprinkles. Broken clouds.7 mph94%30.24 "Hg4 mi
12:01 PM61 °FRain showers. Broken clouds.9 mph88%30.27 "Hg2 mi
11:00 AM61 °FScattered showers. Partly sunny.5 mph94%30.27 "Hg5 mi
10:00 AM61 °FPartly sunny.6 mph88%30.27 "HgN/A
9:00 AM59 °FScattered clouds.3 mph94%30.24 "HgN/A
Weather by CustomWeather, © 2016

See weather overviewHow to use our weather pages